VK2CZZ Weather Reports


time (UTC)temp
C
wind
direction
speed
KPH
gust
KPH
rain 1hr
cm
rain 24hr
cm
rain mn
cm
humidity
%
barometer
mb
20260503185036 17 5 0.0 0.0 0.00 0.00 0.00 88 1017.3
20260503184031 17 5 0.0 0.0 0.00 0.00 0.00 88 1017.3
20260503183024 17 5 0.0 0.0 0.00 0.00 0.00 88 1017.3
20260503182025 18 5 0.0 0.0 0.00 0.00 0.00 86 1017.3
20260503181019 18 5 0.0 0.0 0.00 0.00 0.00 86 1017.2
20260503180040 18 5 0.0 0.0 0.00 0.00 0.00 87 1017.3
20260503175054 18 5 0.0 0.0 0.00 0.00 0.00 87 1017.4
20260503174029 18 5 0.0 0.0 0.00 0.00 0.00 86 1017.4
20260503173022 18 5 0.0 0.0 0.00 0.00 0.00 86 1017.5
20260503172021 18 5 0.0 0.0 0.00 0.00 0.00 86 1017.5
20260503171041 18 5 0.0 0.0 0.00 0.00 0.00 86 1017.4
20260503131045 20 13 0.0 0.0 0.00 0.00 0.00 85 1019.7
20260503081034 21 38 0.0 0.0 0.00 0.00 0.00 80 1019.9
20260503072030 22 34 0.0 0.0 0.00 0.00 0.00 76 1019.6
20260503071023 22 22 0.0 0.0 0.00 0.00 0.00 74 1019.5
20260503055049 23 30 0.0 1.6 0.00 0.00 0.00 69 1019.6
20260503054021 24 39 0.0 0.0 0.00 0.00 0.00 68 1019.7
20260503053038 25 30 0.0 0.0 0.00 0.00 0.00 66 1019.7
20260503052037 25 11 0.0 0.0 0.00 0.00 0.00 64 1019.8
20260503051037 25 360 0.0 0.0 0.00 0.00 0.00 64 1019.8
20260503050035 25 5 0.0 0.0 0.00 0.00 0.00 61 1019.9
20260503045029 25 16 0.0 0.0 0.00 0.00 0.00 62 1020.0
20260503044031 25 5 0.0 0.0 0.00 0.00 0.00 62 1020.0
20260503043022 25 5 0.0 0.0 0.00 0.00 0.00 60 1020.2
20260503042040 25 360 0.0 0.0 0.00 0.00 0.00 60 1020.2
20260503041035 25 11 0.0 0.0 0.00 0.00 0.00 59 1020.1
20260503040031 25 12 0.0 0.0 0.00 0.00 0.00 58 1020.2
20260503035028 25 28 0.0 0.0 0.00 0.00 0.00 58 1020.2
20260503034021 25 5 0.0 0.0 0.00 0.00 0.00 58 1020.4
20260503033019 26 355 0.0 0.0 0.00 0.00 0.00 59 1020.5
20260503032039 25 5 0.0 0.0 0.00 0.00 0.00 59 1020.5
20260503031034 25 5 0.0 0.0 0.00 0.00 0.00 59 1020.6
20260503030027 26 360 0.0 0.0 0.00 0.00 0.00 59 1020.9
20260503025020 25 11 0.0 0.0 0.00 0.00 0.00 59 1021.0
20260503024035 26 355 0.0 0.0 0.00 0.00 0.00 60 1021.1
20260503023031 26 9 0.0 0.0 0.00 0.00 0.00 58 1021.3
20260503022026 26 350 0.0 0.0 0.00 0.00 0.00 59 1021.4
20260503021040 25 9 0.0 0.0 0.00 0.00 0.00 62 1021.8
20260503020035 25 9 0.0 0.0 0.00 0.00 0.00 62 1022.0
20260503015028 25 22 0.0 0.0 0.00 0.00 0.00 62 1022.2
20260503014030 25 355 0.0 0.0 0.00 0.00 0.00 61 1022.3
20260503013023 25 350 0.0 0.0 0.00 0.00 0.00 60 1022.4
20260503012017 25 346 0.0 1.6 0.00 0.00 0.00 63 1022.5
20260503011039 25 355 0.0 0.0 0.00 0.00 0.00 64 1022.7
20260503010032 24 16 0.0 4.8 0.00 0.00 0.00 66 1022.9
20260503005027 24 355 0.0 3.2 0.00 0.00 0.00 66 1023.0
20260503004021 24 36 0.0 8.0 0.00 0.00 0.00 68 1023.1
20260503003035 23 5 0.0 4.8 0.00 0.00 0.00 68 1023.3
20260503002051 23 13 0.0 3.2 0.00 0.00 0.00 68 1023.5
20260503001022 23 17 0.0 3.2 0.00 0.00 0.00 70 1023.5
20260503000017 23 5 0.0 0.0 0.00 0.00 0.00 70 1023.6
20260502235036 23 24 0.0 0.0 0.00 0.00 0.00 71 1023.7
20260502234031 23 5 0.0 0.0 0.00 0.00 0.00 72 1023.9
20260502233023 23 12 0.0 0.0 0.00 0.00 0.00 71 1024.0
20260502232042 23 360 0.0 0.0 0.00 0.00 0.00 71 1024.0
20260502231039 22 21 0.0 0.0 0.00 0.00 0.00 73 1023.9
20260502230032 22 46 0.0 0.0 0.00 0.00 0.00 74 1024.0
20260502225029 22 52 0.0 0.0 0.00 0.00 0.00 74 1024.0
20260502224025 21 74 0.0 0.0 0.00 0.00 0.00 76 1024.0
20260502223021 21 72 0.0 0.0 0.00 0.00 0.00 77 1024.0
20260502222038 21 329 0.0 0.0 0.00 0.00 0.00 78 1024.0
20260502221035 21 304 0.0 0.0 0.00 0.00 0.00 80 1024.0
20260502220035 20 300 0.0 0.0 0.00 0.00 0.00 81 1024.0
20260502215029 19 299 0.0 0.0 0.00 0.00 0.00 86 1023.9
20260502214047 18 299 0.0 0.0 0.00 0.00 0.00 88 1023.8
20260502213020 17 300 0.0 0.0 0.00 0.00 0.00 88 1023.7
20260502212059 17 293 0.0 0.0 0.00 0.00 0.00 87 1023.8
20260502211032 18 292 0.0 0.0 0.00 0.00 0.00 87 1023.6
20260502210024 18 286 0.0 0.0 0.00 0.00 0.00 87 1023.5
20260502205018 18 286 0.0 0.0 0.00 0.00 0.00 87 1023.5
20260502204052 18 286 0.0 0.0 0.00 0.00 0.00 88 1023.4
20260502203024 18 284 0.0 0.0 0.00 0.00 0.00 88 1023.3
20260502202020 18 261 0.0 3.2 0.00 0.00 0.00 88 1023.3
20260502201019 18 5 0.0 0.0 0.00 0.00 0.00 88 1023.2
20260502200031 18 5 0.0 0.0 0.00 0.00 0.00 88 1023.1
20260502195030 18 5 0.0 0.0 0.00 0.00 0.00 87 1023.1
20260502194023 18 5 0.0 0.0 0.00 0.00 0.00 87 1023.0
20260502193018 18 5 0.0 0.0 0.00 0.00 0.00 86 1023.0
20260502192031 18 5 0.0 0.0 0.00 0.00 0.00 86 1023.0
20260502191025 18 5 0.0 0.0 0.00 0.00 0.00 86 1022.9
20260502190018 18 5 0.0 0.0 0.00 0.00 0.00 86 1023.0